Sioux Falls, SD

3:33 PM CDT on March 29, 2017 (GMT -0500)
Foss

Weather History for KFSD - February, 2012

Change the Weather History Date:

Saturday, February 11, 2012

  Actual Average Record
Temperature  
Mean Temperature 8 °F 20 °F  
Max Temperature 21 °F 30 °F 61 °F (1977)
Min Temperature -5 °F 10 °F -40 °F (1899)
Degree Days  
Heating Degree Days 57 45  
Month to date heating degree days 433 507  
Since 1 July heating degree days 4324 5139  
Cooling Degree Days 0 0  
Month to date cooling degree days 0 0  
Year to date cooling degree days 0 0  
Moisture  
Dew Point -8 °F    
Average Humidity 53    
Maximum Humidity 72    
Minimum Humidity 33    
Precipitation  
Precipitation 0.00 in 0.02 in 0.25 in (1992)
Month to date precipitation 0.00 0.20  
Year to date precipitation 0.75 0.76  
Snow  
Snow 0.00 in 0.20 in 4.80 in (1992)
Month to date snowfall 0.0 2.6  
Since 1 July snowfall 8.7 27.2  
Snow Depth 0.00 in    
Sea Level Pressure  
Sea Level Pressure 30.69 in    
Wind  
Wind Speed 7 mph (WNW)    
Max Wind Speed 18 mph    
Max Gust Speed 23 mph    
Visibility 10 miles    
Events      
T = Trace of Precipitation, MM = Missing Value Source: NWS Daily Summary

Daily Weather History Graph

Daily Weather History Graph

Search for Another Location

Airport or City:

Trip Planner

Search our weather history database for the weather conditions in past years. The results will help you decide how hot, cold, wet, or windy it might be!

Date:

Astronomy

Feb. 11, 2012 Rise Set
Actual Time 7:31 AM CST 5:51 PM CST
Civil Twilight 7:01 AM CST 6:21 PM CST
Nautical Twilight 6:28 AM CST 6:54 PM CST
Astronomical Twilight 5:54 AM CST 7:28 PM CST
Moon 10:52 PM CST (2/11) 9:04 AM CST (2/11)
Length of Visible Light 11h 19m
Length of Day
10h 19m
Waning Gibbous, 82% of the Moon is Illuminated
Feb 11
Waning Gibbous
Feb 14
Last Quarter
Feb 21
New
Feb 29
First Quarter
Mar 8
Full

Hourly Weather History & Observations

Time (CST) Temp. Windchill Dew Point Humidity Pressure Visibility Wind Dir Wind Speed Gust Speed Precip Events Conditions
12:56 AM -0.9 °F -14.1 °F -11.0 °F 62% 30.72 in 10.0 mi North 6.9 mph - N/A   Clear
1:56 AM -2.0 °F -16.6 °F -11.0 °F 66% 30.74 in 10.0 mi North 8.1 mph - N/A   Clear
2:56 AM -2.9 °F -13.3 °F -11.0 °F 68% 30.75 in 10.0 mi NNW 4.6 mph - N/A   Clear
3:56 AM -4.0 °F -14.6 °F -11.9 °F 69% 30.76 in 10.0 mi NW 4.6 mph - N/A   Clear
4:56 AM -4.0 °F -16.3 °F -11.9 °F 69% 30.78 in 10.0 mi NW 5.8 mph - N/A   Clear
5:56 AM -4.0 °F -16.3 °F -11.9 °F 69% 30.79 in 10.0 mi WNW 5.8 mph - N/A   Clear
6:56 AM -4.0 °F - -11.9 °F 69% 30.79 in 10.0 mi Calm Calm - N/A   Clear
7:56 AM -4.0 °F - -11.0 °F 72% 30.81 in 10.0 mi Calm Calm - N/A   Clear
8:56 AM 1.9 °F -12.9 °F -8.0 °F 63% 30.81 in 10.0 mi WNW 9.2 mph - N/A   Clear
9:56 AM 8.1 °F -6.2 °F -8.0 °F 48% 30.81 in 10.0 mi NNW 10.4 mph - N/A   Clear
10:56 AM 10.9 °F -4.1 °F -7.1 °F 44% 30.80 in 10.0 mi NW 12.7 mph - N/A   Clear
11:56 AM 14.0 °F 1.2 °F -7.1 °F 39% 30.79 in 10.0 mi NW 10.4 mph - N/A   Clear
12:56 PM 17.1 °F 3.6 °F -7.1 °F 34% 30.76 in 10.0 mi WNW 12.7 mph 19.6 mph N/A   Clear
1:56 PM 19.0 °F 6.1 °F -6.0 °F 33% 30.73 in 10.0 mi West 12.7 mph 19.6 mph N/A   Clear
2:56 PM 19.9 °F 6.7 °F -6.0 °F 32% 30.72 in 10.0 mi WNW 13.8 mph - N/A   Clear
3:56 PM 19.9 °F 7.3 °F -6.0 °F 32% 30.71 in 10.0 mi WNW 12.7 mph 21.9 mph N/A   Clear
4:56 PM 19.0 °F 6.8 °F -6.0 °F 33% 30.70 in 10.0 mi West 11.5 mph - N/A   Clear
5:56 PM 15.1 °F 6.4 °F -7.1 °F 37% 30.69 in 10.0 mi West 5.8 mph - N/A   Clear
6:56 PM 10.9 °F 4.7 °F -6.0 °F 47% 30.69 in 10.0 mi West 3.5 mph - N/A   Clear
7:56 PM 7.0 °F 0.1 °F -7.1 °F 53% 30.69 in 10.0 mi West 3.5 mph - N/A   Clear
8:56 PM 5.0 °F - -6.0 °F 61% 30.67 in 10.0 mi Calm Calm - N/A   Clear
9:56 PM 6.1 °F - -6.0 °F 58% 30.65 in 10.0 mi Calm Calm - N/A   Clear
10:56 PM 3.9 °F -3.4 °F -6.0 °F 64% 30.63 in 10.0 mi WSW 3.5 mph - N/A   Clear
11:56 PM 3.0 °F - -6.0 °F 66% 30.61 in 10.0 mi Calm Calm - N/A   Clear